AirNav   ProFlight Series 2 Aviation Headset
 
 1348 users online  

63IA Davis County Hospital Heliport
Bloomfield, Iowa, USA

GOING TO BLOOMFIELD?


FAA INFORMATION EFFECTIVE 16 JULY 2020

Location

FAA Identifier: 63IA
Lat/Long: 40-45-34.0400N 092-24-54.1900W
40-45.567333N 092-24.903167W
40.7594556,-92.4150528
(estimated)
Elevation: 890 ft. / 271 m (estimated)
Variation: 02E (2000)
From city: 2 miles N of BLOOMFIELD, IA
Time zone: UTC -5 (UTC -6 during Standard Time)
Zip code: 52537

Heliport Operations

Heliport use: Private use. Permission required prior to landing
Activation date: 02/2002
Control tower: no
ARTCC: CHICAGO CENTER
FSS: FORT DODGE FLIGHT SERVICE STATION
Attendance: UNATNDD
Wind indicator: lighted
Segmented circle: no
Lights: FOR PERIMETER LGTS CALL 641-664-2145.

Nearby radio navigation aids

VOR radial/distance  VOR name  Freq  Var
OTMr188/16.7OTTUMWA VOR/DME111.6006E
IRKr006/38.3KIRKSVILLE VORTAC114.6006E

 
NDB name  Hdg/Dist  Freq  Var  ID
BLOOMFIELD037/1.126902EBEX -... . -..-

Heliport Services

Runway Information

Helipad H1

Dimensions: 40 x 40 ft. / 12 x 12 m
Surface: concrete
Runway edge lights: PERI
Latitude: 40-45.567333N
Longitude: 092-24.903167W
Elevation: 890.0 ft.
Traffic pattern: leftleft

Heliport Ownership and Management from official FAA records

Ownership: Privately-owned
Owner: DAVIS COUNTY HOSPITAL
507-509 N MADISON
BLOOMFIELD, IA 52537
Phone 641-664-2145
Manager: DARRIN HAMILTON
509 N MADISON
BLOOMFIELD, IA 52537
Phone 641-664-2145
OR: VERONICA FUHS

Additional Remarks

OWNER DESIRES HELIPORT NOT BE CHARTED.
MEDICAL USE.
FOR CD CTC CHICAGO ARTCC AT 630-906-8921.

Instrument Procedures

There are no published instrument procedures at 63IA.

Some nearby airports with instrument procedures:

4K6 - Bloomfield Municipal Airport (2 nm S)
03D - Memphis Memorial Airport (21 nm SE)
KOTM - Ottumwa Regional Airport (21 nm N)
4C8 - Albia Municipal Airport (21 nm NW)
KTVK - Centerville Municipal Airport (23 nm W)
 
Loc | Ops | Rwys | IFR | FBO | Links
Com | Nav | Svcs | Stats | Notes
Area around 63IA (Davis County Hospital Heliport)
 
Road maps at: MapQuest Bing Google
 
Aerial photo
No photo
 
Sectional chart

 
Airport distance calculator
Flying to Davis County Hospital Heliport? Find the distance to fly.

From to 63IA

Sunrise and sunset
Times for 07-Aug-2020
 Local
(UTC-5)
 Zulu
(UTC)
Morning civil twilight05:4410:44
Sunrise06:1411:14
Sunset20:1701:17
Evening civil twilight20:4701:47

Current date and time
Zulu (UTC)  07-Aug-2020 14:50:00
Local (UTC-5)  07-Aug-2020 09:50:00
 
METAR
KOTM 
20nm N 
071353Z AUTO 16010KT 10SM CLR 21/16 A3008 RMK AO2 SLP183 T02060161
KTVK 
23nm W 
071415Z AUTO 15003KT 10SM CLR 23/20 A3009 RMK AO2
KFFL 
26nm NE 
071435Z AUTO 13008KT 10SM CLR 23/20 A3010 RMK A01
KOOA 
28nm N 
071435Z AUTO 16009KT 10SM CLR 24/18 A3009 RMK AO2 T02350179
KIRK 
40nm S 
071355Z AUTO 15009KT 10SM CLR 22/17 A3010 RMK AO2 SLP190 T02220172
TAF
KOTM 
20nm N 
071123Z 0712/0812 15010KT P6SM FEW140 FM071600 17013G21KT P6SM SCT040 FM080000 15010KT P6SM SCT035
NOTAMs
Click for the latest NOTAMs
NOTAMs are issued by the DoD/FAA and will open in a separate window not controlled by AirNav.

 

 
 

Would you like to see your business listed on this page?

 If your business provides an interesting product or service to pilots, flight crews, aircraft, or users of the Davis County Hospital Heliport, you should consider listing it here.  To start the listing process, click on the button below
 
Add a business
 

Other Pages about Davis County Hospital Heliport

Update a link
 
Copyright © AirNav, LLC. All rights reserved. Privacy Policy  Contact